Terminal Aerodrome Forecast
Issued by NWS Portland, OR

Home | Current Version | Previous Version | Text Only | Print | Product List | Glossary On
Versions: 1 2 3 4 5 6 7 8 9 10 11 12 13 14 15 16 17 18 19 20 21 22 23 24 25 26 27 28 29 30 31 32 33 34 35 36 37 38 39 40
000
FTUS46 KPQR 261332 AAA
TAFAST
TAF AMD
KAST 261332Z 2614/2712 VRB03KT 6SM BR VCSH SCT010 OVC020
     FM261800 VRB04KT P6SM BKN020 OVC040
     FM262100 VRB04KT P6SM SCT025 BKN040
     FM270400 07003KT 4SM BR SCT009 OVC015=

USA.gov is the U.S. government's official web portal to all federal, state and local government web resources and services.